CST,Max TemperatureF,Mean TemperatureF,Min TemperatureF,Max Dew PointF,MeanDew PointF,Min DewpointF,Max Humidity, Mean Humidity, Min Humidity, Max Sea Level PressureIn, Mean Sea Level PressureIn, Min Sea Level PressureIn, Max VisibilityMiles, Mean VisibilityMiles, Min VisibilityMiles, Max Wind SpeedMPH, Mean Wind SpeedMPH, Max Gust SpeedMPH,PrecipitationIn, CloudCover, Events, WindDirDegrees
2011-11-1,70,53,36,38,34,32,89,53,28,30.23,30.18,30.14,10,10,10,18,6,24,0.00,1,,180
2011-11-2,70,56,44,46,40,32,68,52,40,30.20,30.11,29.92,10,10,10,23,10,30,0.00,0,,178
2011-11-3,59,52,44,52,45,38,94,84,46,30.05,29.85,29.75,10,8,3,16,11,28,0.35,8,Rain,221
2011-11-4,51,44,36,46,40,34,100,87,74,30.27,30.21,30.06,10,6,0,13,7,,0.00,6,Fog,359
2011-11-5,62,47,32,45,37,31,100,84,46,30.26,30.19,30.09,10,4,0,13,2,,0.00,1,Fog,150
2011-11-6,61,56,51,45,41,36,77,57,49,30.22,30.16,30.09,10,10,10,18,12,28,0.00,5,,174
2011-11-7,68,62,57,56,52,48,78,68,61,30.23,30.17,30.11,10,10,10,17,9,26,0.00,5,,177
2011-11-8,72,66,59,61,56,49,100,78,57,30.07,29.97,29.85,10,7,2,22,11,28,1.03,6,Rain,169
2011-11-9,64,50,35,61,48,32,94,80,58,30.20,29.92,29.73,10,8,1,24,12,34,0.14,6,Rain,232
2011-11-10,48,38,28,31,22,15,82,49,28,30.23,30.19,30.16,10,10,10,18,8,32,0.00,0,,284
2011-11-11,59,43,27,38,30,23,88,55,37,30.18,30.03,29.92,10,10,10,26,8,32,0.00,0,,195
2011-11-12,60,52,45,47,41,34,65,60,53,30.01,29.92,29.77,10,10,10,34,17,44,0.00,1,,196
2011-11-13,71,66,60,59,55,48,75,68,61,29.76,29.70,29.64,10,10,10,38,27,53,0.00,3,,201
2011-11-14,73,67,55,63,60,50,93,79,68,29.87,29.70,29.61,10,9,1,30,20,40,0.44,5,Rain-Thunderstorm,215
2011-11-15,59,55,51,56,53,48,94,90,82,29.86,29.83,29.80,10,9,5,13,6,,0.33,7,Rain,175
2011-11-16,57,49,39,55,36,23,100,65,41,30.26,30.01,29.83,10,8,2,22,8,31,0.04,5,Rain,346
2011-11-17,46,37,28,25,19,10,75,50,23,30.40,30.35,30.25,10,10,10,12,6,18,0.00,1,,304
2011-11-18,53,43,33,28,22,18,61,41,26,30.34,30.25,30.12,10,10,10,23,11,31,0.00,0,,177
2011-11-19,64,56,48,53,45,30,81,63,46,30.06,29.97,29.90,10,10,7,24,17,37,0.01,7,Rain,189
2011-11-20,59,50,42,56,45,39,96,90,78,30.21,30.15,30.03,10,4,2,20,9,17,0.24,8,Rain-Thunderstorm,334
2011-11-21,50,47,44,48,45,43,100,94,93,30.24,30.14,30.06,7,2,0,17,5,,0.28,8,Fog-Rain-Thunderstorm,348
2011-11-22,55,50,46,54,47,43,100,94,86,30.10,29.93,29.75,10,5,1,17,6,26,1.05,8,Rain-Thunderstorm,342
2011-11-23,46,45,44,43,41,39,93,84,76,30.35,30.26,30.11,10,9,5,14,8,20,0.00,8,,309
2011-11-24,50,46,43,43,41,39,93,87,74,30.38,30.31,30.23,9,7,5,15,9,,0.00,7,,192
2011-11-25,61,52,44,45,43,39,93,76,56,30.22,30.13,30.04,10,9,6,24,11,34,0.00,2,,188
2011-11-26,64,55,45,57,52,41,100,83,62,30.04,29.92,29.85,10,7,1,21,10,29,1.10,7,Rain,205
2011-11-27,44,40,37,40,37,33,93,87,79,30.12,30.00,29.90,10,8,4,17,13,26,0.39,8,Rain,332
2011-11-28,39,38,37,37,34,33,93,88,83,30.07,29.89,29.73,10,6,2,28,14,39,0.71,8,Rain-Snow,351
2011-11-29,41,37,33,36,32,25,93,82,62,30.12,29.92,29.71,10,8,4,21,14,32,0.41,7,Rain,328
2011-11-30,42,34,26,28,24,21,92,71,47,30.24,30.18,30.10,10,10,9,9,4,,0.00,0,,291